Lid_Strength_Index
1 1 1 1 1 1 1 1 1 1 0 0 0 0 1 1 1 0 0 0 0 0 0 0 0 -0 3 9 9 3 0 1 2 3 4 6 8 9 11 9 8 10 9 8 7 7 7
1 0 1 0 0 1 1 1 1 1 0 0 0 0 1 1 1 1 1 0 0 0 0 0 0 0 6 12 4 2 3 3 3 4 5 6 7 7 9 9 10 8 8 8 7 7 7
0 0 0 0 0 0 0 1 1 1 1 1 0 1 1 1 1 1 1 1 1 1 0 0 0 2 7 10 3 3 3 4 3 4 6 4 5 7 8 10 7 8 11 9 9 8 9
0 1 1 1 1 1 1 1 1 1 1 1 1 1 1 1 1 1 1 1 1 1 1 1 0 4 10 4 3 3 3 4 3 3 4 4 4 7 8 7 8 11 11 14 10 9 8
1 1 0 0 1 1 1 1 1 1 1 2 2 2 2 2 1 1 0 1 1 1 1 1 5 7 10 2 5 4 4 5 4 4 4 3 5 8 8 12 14 13 16 15 12 8 9
-0 -0 0 1 1 1 1 2 2 2 2 2 3 3 3 3 2 1 0 1 1 2 2 2 4 10 8 8 5 4 4 4 6 6 6 7 9 12 12 14 18 18 16 15 14 11 10
0 1 1 2 2 2 3 3 3 3 3 3 4 4 4 4 3 2 4 8 9 11 8 10 10 10 9 6 4 5 4 5 5 7 12 10 13 15 13 13 12 13 14 15 12 9 11
1 2 2 3 3 4 4 4 3 4 4 4 5 5 4 4 3 2 7 10 10 8 11 8 9 9 7 7 9 7 4 8 8 12 11 13 14 12 11 11 12 12 14 14 12 10 11
3 4 4 4 4 4 4 5 5 4 4 5 5 5 4 4 3 6 9 9 6 7 12 10 8 9 9 7 10 10 6 8 10 12 12 15 14 10 11 12 13 13 14 14 14 11 11
4 4 4 5 5 5 5 5 5 5 5 5 5 5 4 4 7 8 9 7 6 8 17 13 10 9 7 8 11 6 5 9 12 13 13 13 11 12 13 13 13 15 12 12 13 14 18
5 5 5 5 5 5 6 5 5 5 5 5 5 5 5 5 7 9 8 6 7 10 23 12 11 7 8 10 11 9 6 9 13 14 14 15 14 12 13 12 12 13 11 12 13 15 17
6 6 6 6 6 6 6 6 6 6 6 5 5 5 5 6 7 7 6 7 9 17 22 15 12 12 12 11 10 9 9 9 10 13 13 13 12 11 12 11 11 11 13 14 15 16 20
6 6 6 6 6 6 6 6 6 6 6 5 5 5 5 5 10 6 7 10 18 22 14 16 15 14 14 13 12 12 13 13 15 18 18 15 15 12 11 13 12 13 16 20 21 22 21
6 6 6 6 6 6 6 6 6 6 6 5 5 5 5 4 5 6 7 13 20 16 16 13 14 14 15 14 14 12 14 15 13 15 17 18 19 14 11 12 15 14 15 20 23 21 20
6 6 6 6 6 6 6 6 6 5 5 5 5 7 7 5 5 6 11 19 18 17 13 13 13 16 15 13 13 14 14 14 13 13 16 18 17 13 12 12 12 15 16 14 17 19 20
6 6 6 7 7 7 6 6 6 5 5 5 10 8 7 5 6 8 13 15 16 11 12 13 17 16 17 16 16 16 16 14 13 12 13 15 18 14 13 12 12 13 12 17 18 21 22
7 7 7 7 6 6 6 5 5 4 4 4 11 10 6 6 7 11 17 16 12 10 10 12 15 16 16 17 16 16 15 13 12 12 12 13 16 16 13 14 15 14 15 15 16 17 20
7 7 7 6 6 6 5 5 6 5 5 8 13 16 8 8 14 15 15 13 10 11 10 11 11 12 14 14 15 16 15 14 11 11 13 13 15 18 15 13 13 13 14 15 17 18 18
7 7 7 6 6 6 6 6 6 6 6 10 14 14 9 9 17 16 14 13 11 12 13 11 12 12 12 13 15 15 14 11 11 11 13 12 15 19 17 15 13 14 14 14 15 16 17
7 7 6 6 6 6 6 6 6 6 6 10 13 17 14 13 14 15 15 14 14 12 13 13 14 13 14 15 12 15 14 12 12 11 7 10 15 16 18 16 15 15 14 14 14 18 17
6 6 6 6 6 6 6 6 6 6 6 11 15 15 15 19 16 16 16 15 15 17 15 14 15 16 16 18 17 16 15 15 13 11 12 12 16 17 16 15 14 14 14 14 15 14 17
6 6 5 5 5 5 6 6 6 6 6 13 16 17 15 17 15 17 16 16 16 16 16 16 16 16 16 18 17 19 17 17 17 14 14 13 14 14 16 13 13 15 13 13 13 13 14
6 6 5 5 5 5 5 6 6 6 7 13 12 12 13 16 16 17 17 16 16 15 14 13 15 16 17 15 14 15 14 15 15 16 16 16 16 16 18 14 14 17 14 13 13 13 13
6 5 5 5 5 5 5 5 5 6 7 11 12 13 16 17 16 16 15 15 16 15 16 14 14 17 14 12 13 14 14 15 15 15 14 17 17 16 18 15 21 16 13 13 13 12 12
5 5 5 5 5 5 5 5 5 5 6 10 11 12 15 19 16 16 15 15 15 15 15 15 13 13 12 14 16 18 19 18 16 15 15 14 16 18 19 18 16 14 12 12 14 14 11
5 5 5 5 5 5 5 4 4 4 4 10 10 8 11 16 17 14 15 15 17 17 17 14 12 12 12 14 16 20 22 20 21 19 16 13 13 15 17 19 20 16 12 10 12 17 11
5 5 5 5 5 5 5 5 4 5 5 7 8 7 9 14 14 14 16 15 13 15 16 15 15 14 13 16 19 20 20 17 20 21 20 18 17 17 16 17 15 14 12 11 15 16 12
5 5 5 5 5 5 4 4 4 4 4 6 8 8 8 12 12 11 11 12 13 13 16 14 14 15 15 17 18 18 20 17 17 16 17 18 19 19 18 18 20 11 11 15 12 11 11
5 5 5 5 4 4 4 4 4 3 3 4 8 7 7 9 10 8 7 8 9 9 11 11 12 14 13 17 18 19 18 19 17 21 14 18 16 17 14 15 10 10 9 8 9 11 11